Regional Weather Roundup
Issued by NWS

Home | Current Version | Previous Version | Graphics & Text | Print | Product List | Glossary On
Versions: 1 2 3 4 5 6 7 8 9 10 11 12 13 14 15 16 17 18 19 20 21 22 23 24 25 26 27 28 29 30 31 32 33 34 35 36 37 38 39 40 41 42 43 44 45 46 47 48 49 50
000
ASUS43 KOAX 301010
RWRNE

WEATHER ROUNDUP FOR NEBRASKA
NATIONAL WEATHER SERVICE OMAHA NE
500 AM CDT TUE AUG 30 2016

NOTES: SATELLITE DATA IS BEING USED TO AUGMENT CLOUD COVER ABOVE
       12000 FEET.
       "FAIR" INDICATES FEW OR NO CLOUDS BELOW 12,000 FEET WITH NO
       SIGNIFICANT WEATHER AND/OR OBSTRUCTIONS TO VISIBILITY.

  * THESE STATIONS DO NOT REPORT WEATHER SUCH AS RAIN...SNOW OR FOG.

NEZ001>004-019>022-054>056-301100-
NEBRASKA PANHANDLE

CITY           SKY/WX    TMP DP  RH WIND       PRES   REMARKS
SCOTTSBLUFF    PTCLDY    59  56  89 CALM      30.27S
ALLIANCE       PTCLDY    53  51  93 CALM      30.26S
CHADRON        CLEAR     56  53  90 W5        30.24S
KIMBALL        PTCLDY    55  51  88 W6        30.31S
SIDNEY         PTCLDY    58  56  93 NE3       30.29F
$$

NEZ057>060-069>072-079>082-301100-
SOUTHWEST NEBRASKA

CITY           SKY/WX    TMP DP  RH WIND       PRES   REMARKS
NORTH PLATTE   CLOUDY    66  65  96 SE3       30.22S
IMPERIAL       CLOUDY    64  61  90 W7        30.24F
LEXINGTON      CLOUDY    67  65  95 CALM      30.21S FOG
MCCOOK         CLOUDY    67  66  97 CALM      30.21F FOG
$$

NEZ005>010-023>029-035>040-094-301100-
NORTH CENTRAL NEBRASKA

CITY           SKY/WX    TMP DP  RH WIND       PRES   REMARKS
VALENTINE      CLOUDY    62  59  90 W5        30.20S
AINSWORTH      CLOUDY    65  64  95 SW3       30.21R
BROKEN BOW     CLOUDY    66  65  96 CALM      30.20F
O`NEILL        CLOUDY    68  66  92 S6        30.20R
ORD            CLOUDY    68  65  90 E6        30.20S
THEDFORD       CLOUDY    65  64  94 W5        30.22F
$$

NEZ041-046>049-061>064-073>077-083>087-301100-
SOUTH CENTRAL NEBRASKA

CITY           SKY/WX    TMP DP  RH WIND       PRES   REMARKS
GRAND ISLAND   PTCLDY    67  65  93 SW3       30.19F
AURORA         MOCLDY    65  65 100 CALM      30.19F FOG
HASTINGS       CLOUDY    67  65  93 CALM      30.20F
HEBRON         MOCLDY    68  67  98 CALM      30.17S
HOLDREGE       PTCLDY    67  65  94 CALM      30.21R
KEARNEY *      MOCLDY    66  64  94 CALM      30.20R
YORK           PTCLDY    66  66 100 CALM      30.19S FOG
$$

NEZ011>018-030>034-042>045-301100-
NORTHEAST NEBRASKA

CITY           SKY/WX    TMP DP  RH WIND       PRES   REMARKS
NORFOLK        CLOUDY    67  65  93 SE6       30.19S
ALBION         CLOUDY    67  65  93 CALM      30.20R
BLAIR          CLOUDY    68  67  97 NE7       30.18R FOG
FREMONT        CLOUDY    68  67  99 CALM      30.18S FOG
TEKAMAH        CLOUDY    66  65  96 N5        30.17R
WAYNE          CLOUDY    67  66  97 SW3       30.19S
$$

NEZ050>053-065>068-078-088>093-301100-
SOUTHEAST NEBRASKA

CITY           SKY/WX    TMP DP  RH WIND       PRES   REMARKS
LINCOLN        MOCLDY    69  68  96 CALM      30.17R
OMAHA EPPLEY   CLOUDY    70  66  87 NE3       30.18R
BEATRICE       CLOUDY    67  67  98 S3        30.17R
FALLS CITY     CLOUDY    70  69  97 CALM      30.14S
NEBRASKA CITY  PTCLDY    68  68 100 CALM      30.17R
PLATTSMOUTH    CLOUDY    67  67 100 CALM      30.18R FOG
$$

NEZ044-045-051>053-067-301100-
OMAHA AREA

CITY           SKY/WX    TMP DP  RH WIND       PRES   REMARKS
OMAHA EPPLEY   CLOUDY    70  66  87 NE3       30.18R
BLAIR          CLOUDY    68  67  97 NE7       30.18R FOG
FREMONT        CLOUDY    68  67  99 CALM      30.18S FOG
MILLARD        CLOUDY    70  68  95 CALM      30.17R
OFFUTT AFB     PTCLDY    69  69 100 NE5       30.17R
PLATTSMOUTH    CLOUDY    67  67 100 CALM      30.18R FOG
WAHOO          LGT RAIN  68  66  94 E3        30.19R
$$




USA.gov is the U.S. government's official web portal to all federal, state and local government web resources and services.